Find Starlink 30359

NORAD ID: 57779 Int'l Des: 2023-134 Owner: SPXS Country: US Constellation: starlink operational
LEOCIRCULAR

Live Position

Loading 3D Globe...

About Starlink 30359

Description loading...

Upcoming Passes

Passes for default location (London). Set your location on the main map for personalized predictions.

Altitude History

Loading altitude history...

Two-Line Element Set

1 57779U 23134J 26104.94668072 .00000710 00000-0 35324-4 0 9992
2 57779 43.0028 338.4635 0001047 278.4696 81.6037 15.27575609145181
Epoch: Apr 14, 2026 • Age: 10 hours

Current Status

Altitude 485.8 km
Velocity 7.63 km/s
Sub-Earth Point 37.97°N, 126.66°E
Launch Date Sep 4, 2023
Age 2.6 years
Type internet

Technical Details

Classification Payload
Mass 730.00 kg
Dry Mass 700.00 kg
Total Mass 730.00 kg
Length 0.30 m
Diameter 4.10 m
Span 29.00 m
Shape Box + pan
Manufacturer SPXS
Bus Type Starlink V2M
Phase Status In Orbit
Owner/State SPXS/US

Most Searched